Tracking 28356 objects as of 8-Dec-2023
HD Live streaming from Space Station
objects crossing your sky now

STARLINK-3389

Track STARLINK-3389 now!
10-day predictions
STARLINK-3389 is classified as:


NORAD ID: 51124
Int'l Code: 2022-005W
Perigee: 545.9 km
Apogee: 547.8 km
Inclination: 53.2 °
Period: 95.4 minutes
Semi major axis: 6917 km
RCS: Unknown
Launch date: January 19, 2022
Source: United States (US)
Launch site: AIR FORCE EASTERN TEST RANGE (AFETR)
Your satellite tracking list
Your tracking list is empty




NASA's NSSDC Master Catalog

Two Line Element Set (TLE):
1 51124U 22005W   23341.46284003 -.00002333  00000-0 -12849-3 0  9992
2 51124  53.2186  34.7278 0001387  92.7892 267.3259 15.08846600104464
Source of the keplerian elements: AFSPC